Terminal Aerodrome Forecast
Issued by NWS St Louis, MO

Home | Current Version | Previous Version | Text Only | Print | Product List | Glossary On
Versions: 1 2 3 4 5 6 7 8 9 10 11 12 13 14
000
FTUS43 KLSX 292300
TAFCOU
TAF
KCOU 292329Z 3000/3024 36008KT P6SM SCT060
     FM300100 VRB03KT P6SM SKC
     FM301600 VRB04KT P6SM SCT060=

USA.gov is the U.S. government's official web portal to all federal, state and local government web resources and services.